Regional Weather Roundup
Issued by NWS

Home | Current Version | Previous Version | Text Only | Print | Product List | Glossary On
Versions: 1 2 3 4 5 6 7 8 9 10 11 12 13 14 15 16 17 18 19 20 21 22 23 24 25 26 27 28 29 30 31 32 33 34 35 36 37 38 39 40 41 42 43 44 45 46 47 48 49 50
000
ASHW40 PHFO 300943
RWRHI

WEATHER ROUNDUP FOR HAWAII
NATIONAL WEATHER SERVICE HONOLULU HI
1100 PM HST WED MAR 29 2017

THIS IS AN AUTOMATED REPORT THAT HAS NOT BEEN QUALITY CONTROLLED.

NOTE..."FAIR" INDICATES FEW OR NO CLOUDS BELOW 12,000 FEET WITH NO
SIGNIFICANT WEATHER AND/OR OBSTRUCTIONS TO VISIBILITY.

* - THESE SITES REPORT LIMITED FIELDS

HIZ001>004-301000-
KAUAI-NIIHAU-

CITY           SKY/WX    TMP DP  RH WIND       PRES   REMARKS
LIHUE APT      MOCLDY    75  69  81 NE14      30.14S
PORT ALLEN*      N/A     68 N/A N/A NE5         N/A
POIPU*           N/A     70 N/A N/A N2          N/A
PRINCEVILLE*     N/A     70 N/A N/A S3          N/A
KOKOLE POINT*  NOT AVBL
MOLOAA DAIRY*    N/A     73  68  83 E3G10       N/A
WAIMEA HTS*      N/A     72  61  68 N1          N/A
PUU OPAE*      NOT AVBL
PUU LUA*       NOT AVBL
MAKAHA RIDGE*    N/A     66  59  77 S1          N/A
$$

HIZ005>011-301000-
OAHU-

CITY           SKY/WX    TMP DP  RH WIND       PRES   REMARKS
HONOLULU       PTCLDY    75  64  68 N5        30.12S
KALAELOA       CLEAR     73  63  70 NE3       30.13S
KANEOHE MCB    NOT AVBL
WHEELER FIELD  PTCLDY    67  64  91 NW5       30.12F
BELLOWS*         N/A    N/A N/A N/A NE14        N/A
KAHUKU*          N/A    N/A N/A N/A NE7         N/A
WHEELER*         N/A    N/A N/A N/A NW3         N/A
WAIANAE HARBOR   N/A    N/A N/A N/A NE2         N/A
DILLINGHAM*      N/A     66  64  94 NW1         N/A
KAHUKU TRN*      N/A     82  81  94 W5G12       N/A  HX  95
KAWAILOA*        N/A     68  64  88 E6G16       N/A
KII*             N/A     75  68  78 E12         N/A
MAKUA RANGE*     N/A     64  61  88 NW5         N/A
OAHU FOREST NW   N/A     68  61  77 CALM        N/A
SCHOFIELD BRK*   N/A     66  64  94 MISG        N/A
SCHOFIELD S*   NOT AVBL
WAIANAE VLY*   NOT AVBL
KUAOKALA*        N/A     72   1   6 NE9G15      N/A
HONOULIUULI*   NOT AVBL
MOKUOLOE IS*   NOT AVBL
PALEHUA*         N/A     64  61  88 NE12        N/A
WAIAWA PHB*    NOT AVBL
$$

HIZ012>013-301000-
MOLOKAI-

CITY           SKY/WX    TMP DP  RH WIND       PRES   REMARKS
MOLOKAI AIRPT  CLEAR     72  66  81 NE7       30.12S
KALAUPAPA      NOT AVBL
MAKAPULAPAI*     N/A     75  66  73 E14G25      N/A
MOLOKAI 1*     NOT AVBL
PUU ALII*        N/A     58  58  99 NE3G12      N/A
$$

HIZ016-301000-
KAHOOLAWE-

CITY           SKY/WX    TMP DP  RH WIND       PRES   REMARKS
KAHOOLAWE*     NOT AVBL
HAKIOAWA*        N/A     71  64  78 MISG      30.52F
HONOKANAIA*      N/A     76  65  67 NE15G26   30.04R
KANELOA*         N/A     72  64  78 NE18G35   30.17R
KEALIALALO*    NOT AVBL
LUA MAKIKA*    NOT AVBL
$$

HIZ014>015-301000-
LANAI-

CITY           SKY/WX    TMP DP  RH WIND       PRES   REMARKS
LANAI CITY     FAIR      67  64  90 E7        30.16S
LANAI 1*       NOT AVBL
$$

HIZ017>028-301000-
MAUI-

CITY           SKY/WX    TMP DP  RH WIND       PRES   REMARKS
KAHULUI        CLEAR     73  64  73 SE9       30.11R
KAPALUA-W MAUI NOT AVBL
HANA AIRPORT   CLOUDY    75  68  78 SE9       30.15F
HANA*            N/A     75 N/A N/A SE5G10      N/A
HALEAKALA SUMM   N/A     41  23  48 E18G37      N/A
MAALAEA BAY*     N/A     73 N/A N/A VRB10G17    N/A
HALEAKALA*     NOT AVBL
KAUPO GAP*       N/A     73  70  88 N5G18       N/A
KULA 1*          N/A     46  45  93 E3G10       N/A
$$

HIZ023>026-301000-
BIG ISLAND OF HAWAII COAST AND LOWER SLOPES-

CITY           SKY/WX    TMP DP  RH WIND       PRES   REMARKS
KAILUA KONA    CLEAR     76  60  57 SE5       30.08S
HILO           CLOUDY    71  67  87 S3        30.15R
HONOKAA*         N/A     66 N/A N/A VRB1        N/A
KAWAIHAE MWT*    N/A     75 N/A N/A NE6         N/A
KAWAIHAE*        N/A     75 N/A N/A NE3       30.09S
SOUTH POINT*     N/A     70 N/A N/A N14G22      N/A
UPOLU AIRPORT* NOT AVBL
KAMUELA*       MOSUNNY   57  55  94 E5        30.20S
HAKALAU*         N/A     48  45  87 S5G10       N/A
KALOKO-HONOKO*   N/A     73  59  60 NE3       30.07S
PALI 2*          N/A     63  59  88 SW15G24     N/A
KEALAKOMO*       N/A     75  63  64 N12G18      N/A
KAUPULEHU*       N/A     66  55  68 SE7         N/A
KAPAPALA*        N/A     63  60  90 N3          N/A
LOWER KAHUKU*    N/A     61  61 100 N3G12       N/A
PUHE CS*         N/A     73  63  68 NE3         N/A
PUHO CS*         N/A     73  62  68 E2          N/A
PTA KEAMUKU*     N/A     55  52  88 CALM        N/A
WAIKOLOA*        N/A     64  59  82 E5G10       N/A
$$

HIZ027>028-301000-
BIG ISLAND OF HAWAII INTERIOR AND SUMMMITS-

CITY           SKY/WX    TMP DP  RH WIND       PRES   REMARKS
BRADSHAW FIELD PTCLDY    48  41  75 CALM      30.39S
MK VISITOR CEN   N/A     43  19  39 SE12        N/A
MAUNA KEA*       N/A     34 -20   9 NE25        N/A  WCI  21
MAUNA LOA*       N/A     43 -17   7 MISG        N/A
MAUNA LOA 1*   NOT AVBL
PTA KIPUKA*      N/A     46  46 100 E2          N/A
PTA RANGE 17*    N/A     64  55  72 SE10G21     N/A
PTA WEST*        N/A     54  50  87 E6G12       N/A
NENE CABIN*      N/A     48  48 100 NE9G17      N/A
AHUMOA*          N/A     46  45  93 E5          N/A
PTA PORTABLE*  NOT AVBL
PUU MALI*        N/A     50  45  81 S7          N/A
$$

HIC003-301000-
NORTHWEST ISLANDS-

CITY           SKY/WX    TMP DP  RH WIND       PRES   REMARKS
MIDWAY ISLAND  CLOUDY    64  50  59 NW7       30.14R
MIDWAY NOS*      N/A     64 N/A N/A MISG      30.12S
FRENCH FRIGATE NOT AVBL
$$

PHZ110>124-180-301000-
BUOY REPORTS

STATION/POSITION TIME  TEMP    WIND        PRES    WAVE   SWELL
                       AIR SEA DIR/SP/G            HT/PER HT/DIR
                 (UTC) (F)     (DEG/KT/KT) (MB)    (FT/S) (FT/D)
BUOY 51001       0920   75 76  130/  8/ 14 1020.0
BUOY 51101       0850   76 76  120/ 10/ 12 1020.5R   7/12   7/330
BUOY 51100       NOT AVBL
BUOY 51002       0920   78 78   70/ 19/ 23 1017.5
BUOY 51003       0850   77 78   70/ 10/ 14 1018.6S   8/13   7/290
BUOY 51004       0850      77   80/ 17/ 19 1018.3R   9/ 9   7/ 80
BARBERS PT BUOY  NOT AVBL
WAIMEA BAY BUOY  0902      76                N/A     6/14   5/320
KAILUA BAY BUOY  0904      76                N/A     6/ 9   2/ 50
LANAI BUOY       0915      78                N/A     4/12   2/240
BARBERS PT 2     NOT AVBL
PAUWELA MAUI     0909      76                N/A     7/13   5/320
HILO             0912      77                N/A     8/15   5/330
KANEOHE BAY BUOY 0925      75                N/A     5/ 9   2/340
HANALEI KAUAI    0922      77                N/A     8/14   7/310
KAHULUI HARBOR   0906   75 78   20/  2/  2 1019.6
HONOLULU HARBOR  0906   76 78  220/  4/  5 1020.4
KILO NALU        NOT AVBL
HILO HARBOR      0906   72 77  190/  3/  4 1020.6
MOKUOLOE         0836   76 79   80/  7/  9 1020.3F
NAWILIWILI       0918   75      60/  8/ 10 1019.9
WHOTS BUOY       NOT AVBL
BUOY 51028       NOT AVBL
$$

......................KEY........................................
  SKY/WX - SKY CONDITIONS/PRESENT WEATHER
  TMP    - TEMPERATURE IN FAHRENHEIT
  DWPT   - DEWPOINT IN FAHRENHEIT
  RH     - RELATIVE HUMIDITY IN PERCENT
  WIND   - DIRECTION AND SPEED /MPH FOR ISLANDS...KTS FOR BUOYS/
  PRES   - MEAN SEA LEVEL PRESSURE IN INCHES OF HG
  VSB    - VISIBILITY IN MILES
  HX     - HEAT INDEX
  WCI    - WIND CHILL INDEX
  VRB    - VARIABLE WIND DIRECTION
  N/A    - NOT AVAILABLE



USA.gov is the U.S. government's official web portal to all federal, state and local government web resources and services.